#timestamp,LO_Frequency,Hit,StdDev 
1582844415.1,286046994.9,Y
1582844416.0,286046994.9,P
1582844435.0,286047000.2,N
1582844435.9,286047000.2,N
1582844455.8,286047001.1,N
1582844475.6,286047001.2,N
1582844495.4,286047001.2,N
1582844515.3,286046998.4,N
1582844535.1,286046998.8,N
1582844555.9,286046997.2,N
1582844575.7,286046997.2,N
1582844595.5,286046999.2,N
1582844615.4,286046996.5,N
1582844635.2,286046996.7,N
1582844655.1,286046996.6,N
1582844656.0,286046996.6,N
1582844675.8,286046999.4,N
1582844695.6,286046999.0,N
1582844715.5,286046999.3,N
1582844735.3,286046998.3,N
1582844755.1,286046998.2,N
1582844775.9,286047001.2,N
1582844795.7,286046998.2,N
1582844815.6,286046998.6,N
1582844835.4,286046999.1,N
1582844855.2,286046997.3,N
1582844875.1,286046997.7,N
1582844876.0,286046997.7,N
1582844895.8,286046994.9,Y
1582844915.7,286046997.1,P
1582844935.5,286046997.1,P
1582844985.4,286046997.0,E
1582844995.3,286046998.7,N
1582845015.1,286047002.7,P
1582845035.9,286047002.6,N
1582845055.7,286047002.5,N
1582845075.5,286047002.3,N
1582845095.4,286047000.1,N
1582845115.2,286047001.0,N
1582845135.1,286047000.3,N
1582845136.0,286047000.3,N
1582845155.8,286047002.0,N
1582845175.6,286047002.2,N
1582845195.5,286047002.3,N
1582845215.3,286047002.0,N
1582845235.2,286047002.6,N
1582845255.9,286047002.7,N
1582845275.7,286047000.3,N
1582845295.6,286047000.9,N
1582845315.4,286047001.0,N
1582845335.2,286047003.7,Y
1582845355.1,286047002.3,P
1582845356.0,286047002.3,P
1582845375.8,286047002.2,P
1582845395.7,286047002.3,Y
1582845415.5,286046998.8,P
1582845435.4,286046998.3,N
1582845455.2,286046999.4,N
1582845475.0,286047000.7,N
1582845475.9,286047000.7,N
1582845495.8,286046999.8,N
1582845515.6,286046999.9,N
1582845535.5,286047000.6,N
1582845555.3,286047001.0,N
1582845575.2,286047001.9,N
1582845595.9,286046999.7,N
1582845615.7,286047003.8,Y
1582845635.6,286047002.5,P
1582845655.4,286046999.7,N
1582845675.3,286047002.4,N
1582845695.1,286047002.4,N
1582845696.0,286047002.4,N
1582845715.8,286047001.0,N
1582845735.7,286047001.8,N
1582845755.5,286047001.8,N
1582845775.4,286047003.1,Y
1582845795.2,286047003.8,P
1582845815.0,286047002.7,N
1582845815.9,286047002.7,N
1582845835.8,286047001.2,N
1582845855.6,286046998.8,N
1582845875.5,286047004.4,N
1582845895.3,286047001.7,N
1582845915.1,286047003.3,N
1582845935.9,286047005.6,Y
1582845955.7,286046998.1,P
1582845975.6,286046996.5,N
1582845995.4,286046997.4,N
1582846015.2,286046996.8,N
1582846035.1,286046999.2,N
1582846036.0,286046999.2,N
1582846055.8,286046998.4,N
1582846075.7,286046999.9,N
1582846095.5,286047000.4,N
1582846115.3,286047002.4,N
1582846135.2,286047001.4,N
1582846155.0,286047000.1,N
1582846155.9,286047000.1,N
1582846175.8,286047000.9,N
1582846195.6,286047000.9,N
1582846215.4,286046998.7,N
1582846235.3,286046998.2,N
1582846255.1,286047000.2,N
1582846275.9,286047000.2,N
1582846295.7,286047000.9,N
1582846315.5,286047001.0,N
1582846335.4,286046999.9,N
1582846355.2,286047000.3,N
1582846375.0,286046999.7,N
1582846375.9,286046999.7,N
1582846395.8,286047002.0,N
1582846415.6,286046999.8,N
1582846435.5,286047000.7,N
1582846455.3,286046998.5,N
1582846475.1,286046998.7,N
1582846495.9,286047000.9,N
1582846515.7,286047002.8,N
1582846535.6,286047001.2,N
1582846555.4,286047000.6,N
1582846575.2,286046998.2,N
1582846595.1,286047001.0,N
1582846596.0,286047001.0,N
1582846615.8,286047000.7,N
1582846635.6,286046999.8,N
1582846655.5,286047000.0,N
1582846675.3,286047000.2,N
1582846695.2,286046999.8,N
1582846715.9,286047001.8,N
1582846735.7,286047002.5,N
1582846755.6,286047004.1,Y
1582846775.4,286047003.9,P
1582846795.3,286047000.0,N
1582846815.1,286047001.6,N
1582846816.0,286047001.6,N
1582846835.8,286047004.2,Y
1582846855.7,286047001.8,P
1582846875.5,286047004.4,P
1582846895.4,286047002.5,N
1582846915.2,286047001.6,N
1582846935.0,286046999.9,N
1582846935.9,286046999.9,N
1582846955.8,286046998.8,N
1582846975.6,286047000.4,N
1582846995.4,286047000.5,N
1582847015.3,286046999.1,N
1582847035.1,286047000.6,N
1582847055.9,286047002.2,N
1582847075.7,286047002.0,N
1582847095.5,286047000.3,N
1582847115.4,286047000.1,N
1582847135.2,286047002.2,N
1582847155.0,286047002.3,N
1582847156.0,286047002.3,N
1582847175.8,286046998.1,N
1582847195.6,286046998.9,N
1582847215.5,286046996.7,N
1582847235.3,286046999.4,N
1582847255.1,286047000.9,N
1582847275.9,286047001.1,N
1582847295.7,286047000.1,N
1582847315.6,286047001.5,N
1582847335.4,286047000.0,N
1582847355.2,286046999.8,N
1582847375.1,286047000.9,N
1582847376.0,286047000.9,N
1582847395.8,286047002.0,N
1582847415.7,286046999.8,N
1582847435.5,286047001.6,N
1582847455.3,286046999.9,N
1582847475.2,286047001.6,N
1582847495.0,286047001.3,N
1582847495.9,286047001.3,N
1582847515.7,286047003.3,N
1582847535.6,286047004.3,Y
1582847555.4,286047001.9,P
1582847575.3,286047004.1,P
1582847595.1,286047004.0,N
1582847615.8,286047002.5,N
1582847635.7,286047000.8,N
1582847655.5,286047000.3,N
1582847675.4,286047000.3,N
1582847695.2,286046999.7,N
1582847715.0,286047000.9,N
1582847715.9,286047000.9,N
1582847735.8,286047000.5,N
1582847755.6,286047001.2,N
1582847775.4,286046999.4,N
1582847795.3,286046999.4,N
1582847815.1,286046996.7,N
1582847835.9,286047002.1,N
1582847855.7,286046999.7,N
1582847875.5,286046999.7,N
1582847895.4,286046999.9,N
1582847915.2,286047001.6,N
1582847935.1,286047002.1,N
1582847936.0,286047002.1,N
1582847955.8,286047000.9,N
1582847975.6,286047001.2,N
1582847995.5,286046998.2,N
